This demonstration page uses our WeatherBlox Daily Observations layout. Learn more.

Left ArrowRight Arrow

39.01783, -85.05884

Hourly Observations for October 4, 2022

Temp ( °F °C ) Dew Point ( °F °C ) Humidity (%) Winds ( mph kmh ) Pressure ( in mb ) Visibility ( mi km ) Precip ( " mm )
12:52 am 00:52 Clear 54 12.2 39 3.9 57 57 ENE 10 17 30.22 1023 10 16 0.00 0.00
1:52 am 01:52 Clear 51 10.6 41 5 68 68 N 5 7 30.22 1024 10 16 0.00 0.00
2:52 am 02:52 Clear 48 8.9 41 5 76 76 NNE 7 11 30.22 1024 10 16 0.00 0.00
3:52 am 03:52 Clear 48 8.9 43 6.1 83 83 Calm 30.22 1023 10 16 0.00 0.00
4:52 am 04:52 Clear 47 8.3 42 5.6 83 83 N 5 7 30.20 1023 10 16 0.00 0.00
5:52 am 05:52 Clear 45 7.2 43 6.1 93 93 N 5 7 30.21 1023 10 16 0.00 0.00
6:52 am 06:52 Clear 45 7.2 43 6.1 93 93 NNW 5 7 30.22 1023 10 16 0.00 0.00
7:52 am 07:52 Partly Cloudy with Mist and Fog 42 5.6 42 5.6 100 100 N 5 7 30.22 1024 6 10 0.00 0.00
8:52 am 08:52 Mostly Sunny 47 8.3 44 6.7 90 90 N 5 7 30.23 1024 7 11 0.00 0.00
9:52 am 09:52 Mostly Sunny 51 10.6 46 7.8 83 83 N 3 6 30.24 1024 10 16 0.00 0.00
10:52 am 10:52 Sunny 57 13.9 46 7.8 67 67 Calm 30.23 1024 10 16 0.00 0.00
11:52 am 11:52 Sunny 60 15.6 43 6.1 53 53 NE 6 9 30.22 1023 10 16 0.00 0.00
12:52 pm 12:52 Sunny 64 17.8 35 1.7 34 34 NNE 6 9 30.20 1023 10 16 0.00 0.00
1:52 pm 13:52 Sunny 66 18.9 33 0.6 29 29 NNE 6 9 30.19 1022 10 16 0.00 0.00
2:52 pm 14:52 Mostly Sunny 69 20.6 35 1.7 28 28 VRB 5 7 30.16 1021 10 16 0.00 0.00
3:52 pm 15:52 Mostly Sunny 71 21.7 35 1.7 27 27 N 9 15 30.14 1021 10 16 0.00 0.00
4:52 pm 16:52 Mostly Sunny 70 21.1 33 0.6 25 25 N 9 15 30.13 1020 10 16 0.00 0.00
5:52 pm 17:52 Sunny 69 20.6 35 1.7 28 28 N 8 13 30.13 1020 10 16 0.00 0.00
6:52 pm 18:52 Sunny 68 20 35 1.7 30 30 Calm 30.12 1020 10 16 0.00 0.00
7:52 pm 19:52 Clear 59 15 42 5.6 53 53 W 6 9 30.13 1020 10 16 0.00 0.00
8:52 pm 20:52 Clear 56 13.3 41 5 57 57 WNW 5 7 30.14 1021 10 16 0.00 0.00
9:52 pm 21:52 Clear 56 13.3 42 5.6 60 60 Calm 30.14 1021 10 16 0.00 0.00
10:52 pm 22:52 Clear 56 13.3 41 5 57 57 N 5 7 30.14 1021 10 16 0.00 0.00
11:52 pm 23:52 Clear 53 11.7 41 5 63 63 Calm 30.14 1021 10 16 0.00 0.00

Powered by AerisWeather